Location: Morosaglia
(42.4360°N, 9.3069°E)
Time: 02:22:58
(UTC+00:00)

Cosmos 1953 Rocket - Pass Details

Date: 07 June 2020
Orbit: 603 x 635 km, 82.5° (Epoch: 06 July)

Event Time Altitude Azimuth Distance (km) Brightness Sun altitude
Exits shadow 00:33:31 74° 188° (S) 650 3.4 -22.7°
Maximum altitude 00:33:54 90° 242° (WSW) 629 3.4 -22.7°
Drops below altitude 10° 00:38:20 10° 8° (N) 1,991 7.2 -22.4°
Sets 00:40:33 0° 9° (N) 2,896 8.4 -22.3°
